TimeEDT,TemperatureF,Dew PointF,Humidity,Sea Level PressureIn,VisibilityMPH,Wind Direction,Wind SpeedMPH,Gust SpeedMPH,PrecipitationIn,Events,Conditions,WindDirDegrees,DateUTC
12:54 AM,37.0,32.0,82,30.14,10.0,ENE,5.8,-,N/A,,Clear,60,2012-11-03 04:54:00
1:54 AM,37.9,33.1,83,30.14,10.0,ENE,4.6,-,N/A,,Clear,60,2012-11-03 05:54:00
4:54 AM,34.0,30.9,89,30.13,10.0,NE,4.6,-,N/A,,Clear,50,2012-11-03 08:54:00
5:54 AM,34.0,30.9,89,30.15,10.0,ENE,4.6,-,N/A,,Mostly Cloudy,70,2012-11-03 09:54:00
6:54 AM,35.1,30.9,85,30.16,10.0,East,6.9,-,N/A,,Mostly Cloudy,80,2012-11-03 10:54:00
7:54 AM,35.1,30.9,85,30.17,10.0,East,8.1,-,N/A,,Mostly Cloudy,80,2012-11-03 11:54:00
8:54 AM,35.1,30.9,85,30.18,10.0,ENE,6.9,-,N/A,,Overcast,70,2012-11-03 12:54:00
9:54 AM,35.1,30.9,85,30.20,10.0,ENE,5.8,-,0.00,,Ice Pellets,70,2012-11-03 13:54:00
10:54 AM,34.0,32.0,92,30.21,5.0,East,4.6,-,0.06,Rain,Ice Pellets,80,2012-11-03 14:54:00
11:54 AM,36.0,33.1,89,30.19,10.0,ENE,8.1,-,0.00,,Ice Pellets,70,2012-11-03 15:54:00
12:54 PM,37.0,34.0,89,30.19,7.0,ENE,6.9,-,0.01,Rain,Ice Pellets,60,2012-11-03 16:54:00
1:54 PM,37.9,34.0,86,30.17,10.0,NE,10.4,-,0.01,,Ice Pellets,50,2012-11-03 17:54:00
2:54 PM,37.9,34.0,86,30.17,10.0,NE,8.1,-,0.00,,Ice Pellets,50,2012-11-03 18:54:00
3:54 PM,39.0,34.0,82,30.16,10.0,ENE,9.2,-,0.00,,Ice Pellets,70,2012-11-03 19:54:00
4:54 PM,39.9,33.1,77,30.17,10.0,NE,6.9,-,0.00,,Ice Pellets,50,2012-11-03 20:54:00
5:54 PM,39.9,33.1,77,30.17,10.0,East,3.5,-,0.00,,Ice Pellets,80,2012-11-03 21:54:00
6:54 PM,39.9,33.1,77,30.17,10.0,Calm,Calm,-,N/A,,Overcast,0,2012-11-03 22:54:00
7:54 PM,39.0,33.1,79,30.18,10.0,Calm,Calm,-,N/A,,Overcast,0,2012-11-03 23:54:00
8:54 PM,36.0,32.0,86,30.18,10.0,Calm,Calm,-,N/A,,Mostly Cloudy,0,2012-11-04 00:54:00
9:54 PM,37.9,32.0,79,30.19,10.0,North,5.8,-,N/A,,Overcast,10,2012-11-04 01:54:00
10:54 PM,36.0,30.0,79,30.20,10.0,North,6.9,-,N/A,,Clear,10,2012-11-04 02:54:00
11:54 PM,34.0,28.9,82,30.19,10.0,NNE,4.6,-,N/A,,Partly Cloudy,20,2012-11-04 03:54:00